{"data":{"norad_id":56148,"intl_designator":"2023-046BJ","name":"STARLINK-5089","alt_names":[],"object_type":"PAYLOAD","status":"ACTIVE","operator":null,"country":"US","launch_date":"2023-03-29","launch_site_code":"AFETR","launch_vehicle":null,"mission":null,"orbit_class":"UNKNOWN","rcs_meters":null,"size_class":null,"mass_kg":null,"dimensions":null,"purposes":["comms"],"wikipedia_slug":null,"has_3d_model":false,"image_url":null,"decayed_at":null,"tle_current":{"epoch":"2026-09-20T21:04:27.935040Z","epoch_age_seconds":76129,"freshness":"FRESH","line1":"1 56148U 23046BJ  26263.87810110 -.00000218  00000+0  15930-5 0  9998","line2":"2 56148  43.0044  87.9648 0000852 263.1784  96.8971 15.27568895192478","mean_motion":15.27568895,"eccentricity":8.52e-5,"inclination_deg":43.0044,"raan_deg":87.9648,"arg_perigee_deg":263.1784,"mean_anomaly_deg":96.8971,"bstar":1.593e-6,"rev_number":19247,"period_min":94.267434006634,"perigee_km":482.4977727176,"apogee_km":483.6669244946,"semimajor_km":6861.2193486061,"source":"CELESTRAK","updated_at":"2026-09-21T09:00:33.391142Z"}}}